[[{"header":{"parameterUnit":"m.s-1","parameterCategory":1,"la1":30.2991,"la2":30.254,"lo1":-89.0895,"lo2":-89.0444,"dy":0.0017,"dx":0.0017,"nx":28,"ny":28,"refTime":"2025-08-29T09:00:00:Z","depth":0,"parameterNumber":2,"parameterNumberName":"U-component_of_WINDS"},"data":[0,0,0,0,0,0,0,0,0,0,0,0,0,0,0,0,0,0,0,0,0,0,0,0,0,0,0,0,0,0,0,0,0,0,0,0,0,0,0,0,0,0,0,0,0,0,0,0,0,0,0,0,0,0,0,0,0,0,-0.2524,-0.2526,0,-0.2779,-0.2782,-0.2785,-0.3037,-0.304,-0.3043,-0.3047,-0.3306,-0.3309,-0.3313,0,0,0,0,0,0,0,0,0,0,0,0,0,-0.2252,-0.2255,-0.2523,-0.2527,-0.253,-0.2779,-0.2782,-0.2786,-0.3036,-0.304,-0.3044,-0.3048,-0.3304,-0.3309,-0.3313,0,0,0,0,0,0,0,0,0,0,0,0,0,-0.2424,-0.2257,-0.2523,-0.2685,-0.2702,-0.2778,-0.2782,-0.2787,-0.3035,-0.304,-0.3045,-0.305,-0.3303,-0.3308,-0.3314,-0.325,0,0,-0.3331,-0.3334,0,0,0,0,0,0,0,0,-0.2414,-0.2434,-0.2658,-0.2674,-0.2693,-0.2881,-0.2782,-0.2942,-0.3034,-0.2909,-0.3047,-0.3052,-0.316,-0.3178,-0.3215,-0.3262,-0.3273,-0.3332,-0.3335,-0.3338,-0.3339,0,0,0,0,0,0,0,-0.2402,-0.2425,-0.2625,-0.2661,-0.2682,-0.2745,-0.2775,-0.2813,-0.3003,-0.292,-0.2939,-0.2966,-0.3171,-0.3209,-0.3223,-0.3277,-0.3332,-0.3337,-0.334,-0.3343,-0.3286,-0.3281,0,0,0,0,0,0,-0.2366,-0.2413,-0.2617,-0.2632,-0.2563,-0.2745,-0.2779,-0.2816,-0.3004,-0.3037,-0.2961,-0.2977,-0.3197,-0.3216,-0.3233,-0.3171,-0.3338,-0.3343,-0.3346,-0.329,-0.3284,-0.3279,0,0,0,0,0,0,-0.2359,-0.2381,-0.2606,-0.2528,-0.2561,-0.2745,-0.2784,-0.2818,-0.2857,-0.3035,-0.307,-0.2965,-0.3201,-0.3225,-0.3244,-0.3183,-0.3346,-0.3351,-0.3296,-0.3289,-0.3282,-0.3045,0,0,0,0,0,0,-0.235,-0.2377,-0.2355,-0.2526,-0.2565,-0.2613,-0.278,-0.282,-0.2866,-0.2888,-0.3048,-0.3079,-0.3207,-0.3234,-0.325,-0.3194,-0.3355,-0.3303,-0.3293,-0.3284,-0.3059,-0.303,-0.3006,0,0,0,0,0,-0.2339,-0.2277,-0.2352,-0.2376,-0.254,-0.2609,-0.2631,-0.278,-0.286,-0.2839,-0.2954,-0.3074,-0.3187,-0.3234,-0.3254,-0.3199,-0.3307,-0.3296,-0.3285,-0.3071,-0.3036,-0.3007,0,0,0,0,0,0,-0.2094,-0.2303,-0.2388,-0.238,-0.2474,-0.2651,-0.2629,-0.2738,-0.2812,-0.283,-0.3011,-0.3045,-0.3043,-0.3124,-0.3172,-0.3147,-0.3264,-0.3256,-0.3095,-0.3063,-0.3037,-0.3018,-0.336,0,0,0,0,0,-0.2038,-0.2077,-0.2258,-0.2233,-0.2276,-0.2443,-0.2479,-0.2586,-0.2691,-0.2732,-0.2849,-0.2946,-0.3004,-0.3038,-0.3102,-0.3072,-0.3111,-0.3044,-0.3018,-0.2995,-0.2986,-0.2977,-0.295,-0.3243,-0.3243,-0.3243,0,0,-0.1925,-0.2044,-0.2057,-0.2186,-0.2273,-0.2308,-0.2476,-0.2506,-0.2534,-0.2737,-0.2763,-0.2851,-0.2972,-0.2966,-0.297,-0.3033,-0.2914,-0.2981,-0.2961,-0.2965,-0.2963,-0.2935,-0.291,-0.3235,-0.3236,-0.3238,0,0,-0.1736,-0.183,-0.182,-0.1903,-0.2032,-0.2144,-0.2141,-0.2302,-0.2369,-0.2398,-0.2551,-0.2587,-0.2683,-0.2763,-0.2816,-0.2658,-0.2771,-0.2674,-0.2534,-0.2524,-0.2501,-0.2481,-0.2425,-0.2403,-0.2664,-0.2664,-0.2663,0,-0.1578,-0.1639,-0.1801,-0.1822,-0.1875,-0.2061,-0.2052,-0.2125,-0.2267,-0.2299,-0.2368,-0.2493,-0.2587,-0.2604,-0.2565,-0.2602,-0.2604,-0.2656,-0.2491,-0.2473,-0.2457,-0.2406,-0.2385,-0.2651,-0.2652,-0.2654,-0.2655,0,-0.1439,-0.1478,-0.1455,-0.1588,-0.1639,-0.1644,-0.1807,-0.1838,-0.194,-0.2045,-0.2072,-0.2192,-0.2283,-0.2295,-0.2395,-0.2326,-0.2361,-0.2458,-0.2579,-0.2414,-0.2369,-0.2351,-0.2633,-0.2637,-0.2641,-0.2644,0,0,-0.1102,-0.1326,-0.1314,-0.1378,-0.1534,-0.1568,-0.1582,-0.1672,-0.1695,-0.1787,-0.1804,-0.1881,-0.1973,-0.2032,-0.2143,-0.2134,-0.2002,-0.2233,-0.2238,-0.2185,-0.1933,-0.1859,-0.1834,-0.2078,-0.2075,-0.2073,-0.1923,0,-0.094,-0.0978,-0.1125,-0.1119,-0.1158,-0.1335,-0.1348,-0.1445,-0.1543,-0.159,-0.1699,-0.1751,-0.1867,-0.1905,-0.1903,-0.2017,-0.1953,-0.2031,-0.2095,-0.2095,-0.2059,-0.1811,-0.1733,-0.1586,-0.1907,-0.1904,-0.1902,0,-0.0757,-0.0837,-0.0835,-0.0991,-0.1013,-0.1022,-0.1117,-0.116,-0.1273,-0.1346,-0.1412,-0.1537,-0.1562,-0.1674,-0.1712,-0.1761,-0.1796,-0.1856,-0.1855,-0.1866,-0.1988,-0.1815,-0.1543,-0.152,-0.1876,-0.1878,-0.188,0,-0.0511,-0.062,-0.0633,-0.0682,-0.0864,-0.0866,-0.0942,-0.1061,-0.1106,-0.1188,-0.122,-0.1303,-0.1349,-0.1411,-0.1554,-0.1623,-0.1575,-0.17,-0.1636,-0.1632,-0.1618,-0.1616,-0.1346,-0.1639,-0.1639,-0.164,-0.164,0,-0.0316,-0.0307,-0.0526,-0.0533,-0.053,-0.0698,-0.0689,-0.0782,-0.0886,-0.0915,-0.1074,-0.1098,-0.1286,-0.1331,-0.1444,-0.1458,-0.1477,-0.1536,-0.1566,-0.1522,-0.1514,-0.1547,-0.1561,-0.1634,-0.1635,-0.1637,-0.1637,0,-0.0041,-0.0187,-0.0213,-0.0384,-0.0426,-0.0416,-0.0562,-0.0577,-0.0685,-0.0719,-0.0737,-0.0906,-0.0968,-0.1118,-0.1218,-0.1294,-0.1278,-0.1333,-0.1239,-0.1259,-0.1186,-0.1191,-0.0928,-0.0902,-0.1209,-0.1206,-0.1204,0,0.0093,0.0095,-0.0075,-0.0106,-0.0176,-0.0224,-0.0271,-0.0437,-0.0479,-0.0609,-0.0607,-0.0681,-0.075,-0.084,-0.0971,-0.1049,-0.1108,-0.101,-0.112,-0.1076,-0.1107,-0.1105,-0.1106,-0.0985,-0.0981,-0.0978,-0.0975,0,0.0347,0.0275,0.0213,0.0126,0.0074,-0.0002,-0.0087,-0.0104,-0.029,-0.0329,-0.0395,-0.0448,-0.0551,-0.0623,-0.0721,-0.08,-0.0917,-0.0939,-0.0929,-0.0884,-0.083,-0.0858,-0.1173,-0.0945,-0.0948,-0.095,-0.0952,-0.0953,0.0554,0.0548,0.0427,0.0363,0.0281,0.0205,0.0183,0.0072,0.0015,-0.0083,-0.0177,-0.0232,-0.0347,-0.0492,-0.0562,-0.0608,-0.0669,-0.0653,-0.0649,-0.0643,-0.0623,-0.0822,-0.0626,-0.0627,-0.0628,-0.0629,-0.063,0,0.08,0.0713,0.0656,0.0541,0.0491,0.0384,0.0284,0.0249,0.0202,0.0105,0.0041,-0.0034,-0.0105,-0.0242,-0.0324,-0.0335,-0.0391,-0.0351,-0.0352,-0.0368,-0.0564,-0.0565,-0.0304,-0.0304,-0.0304,-0.0304,-0.0304,-0.0304,0.0921,0.0904,0.0817,0.0758,0.067,0.0614,0.0566,0.0496,0.0417,0.034,0.0281,0.0191,0.0078,-0.0014,-0.0084,-0.0122,-0.0145,-0.0087,-0.0143,-0.0323,-0.0354,-0.0383,-0.0386,-0.0091,-0.0091,0.0056,0.0057,0.0059]},{"header":{"parameterUnit":"m.s-1","parameterCategory":1,"la1":30.2991,"la2":30.254,"lo1":-89.0895,"lo2":-89.0444,"dy":0.0017,"dx":0.0017,"nx":28,"ny":28,"refTime":"2025-08-29T09:00:00:Z","depth":0,"parameterNumber":3,"parameterNumberName":"V-component_of_WINDS"},"data":[0,0,0,0,0,0,0,0,0,0,0,0,0,0,0,0,0,0,0,0,0,0,0,0,0,0,0,0,0,0,0,0,0,0,0,0,0,0,0,0,0,0,0,0,0,0,0,0,0,0,0,0,0,0,0,0,0,0,1.0818,1.0816,0,1.0605,1.0602,1.06,1.0352,1.0348,1.0344,1.0341,1.0121,1.0119,1.0117,0,0,0,0,0,0,0,0,0,0,0,0,0,1.1008,1.1006,1.0818,1.0815,1.0813,1.0605,1.0602,1.0599,1.0353,1.0348,1.0343,1.0339,1.0122,1.0119,1.0116,0,0,0,0,0,0,0,0,0,0,0,0,0,1.0874,1.1005,1.0819,1.0665,1.0649,1.0606,1.0602,1.0599,1.0353,1.0348,1.0342,1.0337,1.0123,1.0119,1.0116,1.0207,0,0,1.0105,1.0104,0,0,0,0,0,0,0,0,1.0882,1.0867,1.069,1.0675,1.0657,1.0499,1.0588,1.0467,1.0355,1.0466,1.0341,1.0334,1.0251,1.0237,1.0209,1.0197,1.0187,1.0105,1.0103,1.0101,1.01,0,0,0,0,0,0,0,1.0891,1.0875,1.0734,1.0688,1.0668,1.0605,1.058,1.0564,1.0393,1.0455,1.0437,1.0415,1.0241,1.0213,1.0202,1.0184,1.0105,1.0102,1.01,1.0098,1.0233,1.0238,0,0,0,0,0,0,1.0924,1.0884,1.074,1.0727,1.0758,1.0606,1.0578,1.0556,1.0392,1.0362,1.042,1.0404,1.0222,1.0207,1.0194,1.0288,1.0101,1.0098,1.0096,1.0227,1.0234,1.024,0,0,0,0,0,0,1.0929,1.0914,1.0749,1.08,1.0775,1.0609,1.0586,1.0554,1.0526,1.0365,1.0333,1.0424,1.0217,1.0199,1.0205,1.0278,1.0096,1.0093,1.0221,1.023,1.0237,1.0481,0,0,0,0,0,0,1.0936,1.0917,1.0951,1.0803,1.0773,1.0766,1.059,1.0554,1.0521,1.0498,1.036,1.0332,1.0211,1.0212,1.0202,1.0269,1.009,1.0213,1.0225,1.0235,1.0465,1.0496,1.0523,0,0,0,0,0,1.0943,1.1028,1.0954,1.0938,1.0812,1.0771,1.0753,1.0613,1.0528,1.056,1.0456,1.0336,1.0271,1.0215,1.0201,1.0269,1.0208,1.0221,1.0234,1.0453,1.049,1.0522,0,0,0,0,0,0,1.1188,1.1006,1.0922,1.0961,1.0883,1.0729,1.0765,1.0658,1.0603,1.0584,1.0412,1.0383,1.041,1.0339,1.028,1.0347,1.0222,1.0233,1.0393,1.0427,1.0456,1.0473,1.0088,0,0,0,0,0,1.1247,1.1229,1.107,1.112,1.1085,1.0933,1.091,1.0808,1.0721,1.0686,1.0583,1.0502,1.0463,1.0441,1.0396,1.0453,1.0419,1.0493,1.0522,1.0546,1.0558,1.0582,1.0613,1.0282,1.0282,1.0282,0,0,1.1368,1.1266,1.1265,1.1167,1.1095,1.108,1.0907,1.0898,1.0885,1.0685,1.0685,1.0607,1.0504,1.0537,1.0546,1.0479,1.0641,1.0563,1.0583,1.0581,1.0598,1.063,1.0658,1.0291,1.029,1.0288,0,0,1.158,1.1502,1.1534,1.1465,1.1358,1.1256,1.1264,1.1125,1.1066,1.1063,1.0912,1.0893,1.083,1.0763,1.0721,1.0906,1.0793,1.0896,1.1047,1.1073,1.1099,1.1121,1.1187,1.1213,1.0908,1.0909,1.0909,0,1.1744,1.1716,1.1565,1.1565,1.1526,1.1344,1.1375,1.1315,1.1199,1.1176,1.1102,1.1018,1.0936,1.095,1.0996,1.0967,1.0971,1.0912,1.1107,1.1128,1.1146,1.1208,1.1233,1.0922,1.092,1.0919,1.0918,0,1.1922,1.1905,1.1944,1.1837,1.1802,1.1818,1.1668,1.1651,1.1552,1.1457,1.1456,1.1351,1.1282,1.1277,1.1181,1.1277,1.1239,1.1139,1.101,1.1194,1.1248,1.1271,1.0941,1.0936,1.0932,1.0929,0,0,1.2285,1.2093,1.211,1.2059,1.1926,1.191,1.1917,1.1849,1.1837,1.1762,1.1764,1.1713,1.1619,1.1572,1.1466,1.1488,1.1642,1.1384,1.1379,1.1437,1.174,1.1818,1.1847,1.1565,1.1569,1.1572,1.1749,0,1.2474,1.2477,1.234,1.238,1.2362,1.2187,1.2193,1.2112,1.2023,1.1994,1.1894,1.1862,1.174,1.171,1.1724,1.1621,1.1701,1.1605,1.1564,1.1565,1.1597,1.1876,1.1957,1.2129,1.177,1.1773,1.1776,0,1.2695,1.2634,1.2673,1.2538,1.2525,1.2533,1.2459,1.2434,1.2337,1.2271,1.2218,1.2097,1.2093,1.197,1.1962,1.19,1.1874,1.1821,1.1824,1.1816,1.1683,1.1876,1.2181,1.2207,1.1808,1.1805,1.1803,0,1.2957,1.2883,1.2897,1.2858,1.2701,1.2711,1.2646,1.2543,1.2511,1.2446,1.2423,1.2359,1.2324,1.2276,1.2141,1.2064,1.2148,1.2014,1.2092,1.2096,1.2119,1.2119,1.2425,1.2102,1.2101,1.2101,1.21,0,1.3182,1.3213,1.3012,1.3021,1.3049,1.289,1.2923,1.284,1.2751,1.2739,1.2584,1.2576,1.2397,1.2369,1.2263,1.2272,1.2257,1.2202,1.2174,1.2217,1.2224,1.2199,1.2184,1.2108,1.2106,1.2105,1.2104,0,1.348,1.3346,1.3349,1.32,1.3163,1.3191,1.3062,1.3063,1.2964,1.2951,1.2939,1.2783,1.2742,1.2602,1.2525,1.2453,1.2496,1.244,1.2529,1.2511,1.2597,1.2592,1.2898,1.293,1.2587,1.2591,1.2594,0,1.3633,1.3652,1.3506,1.3487,1.3429,1.3401,1.3367,1.3211,1.3182,1.3073,1.3087,1.3033,1.2982,1.2924,1.2803,1.2744,1.2686,1.2797,1.2676,1.2719,1.2688,1.2689,1.269,1.2825,1.2829,1.2833,1.2836,0,1.392,1.3852,1.381,1.3745,1.3709,1.365,1.3581,1.3575,1.34,1.3375,1.3331,1.3292,1.3214,1.3162,1.3083,1.3013,1.2897,1.2875,1.289,1.2935,1.2985,1.2959,1.2602,1.2869,1.2866,1.2863,1.2861,1.286,1.4149,1.4158,1.4056,1.4014,1.3946,1.3886,1.3879,1.3779,1.374,1.3665,1.3574,1.3542,1.3442,1.3324,1.3264,1.3235,1.3171,1.3192,1.3198,1.3206,1.3227,1.299,1.3219,1.3218,1.3217,1.3216,1.3215,0,1.4428,1.4353,1.4316,1.4226,1.4192,1.4085,1.4003,1.3982,1.3955,1.3873,1.3826,1.3775,1.3724,1.3599,1.3536,1.3536,1.3481,1.3525,1.3524,1.351,1.3288,1.3281,1.3571,1.3571,1.3571,1.3571,1.3571,1.3571,1.4569,1.4579,1.4499,1.4473,1.4397,1.4364,1.4327,1.427,1.4204,1.4155,1.4111,1.403,1.3931,1.3858,1.3806,1.377,1.3755,1.3817,1.3764,1.3559,1.3526,1.3493,1.3486,1.3815,1.3815,1.3988,1.399,1.3991]}]]